Location: Camp Crooked Creek
(37.9149°N, 85.6607°W)
Time: 21:33:10
(UTC-04:00)

Lacrosse 4 - Visible Passes

Search period start: 28 March 2017 00:00
Search period end: 07 April 2017 00:00
Orbit: 673 x 680 km, 68.0° (Epoch: 25 February)

Date Brightness Start Highest point End Pass type
(mag) Time Alt. Az. Time Alt. Az. Time Alt. Az.
28 Mar 4.2 22:05:57 10° NNE 22:06:14 10° NNE 22:06:14 10° NNE visible
28 Mar 4.6 23:44:00 10° NNW 23:44:32 13° NNW 23:44:32 13° NNW visible
29 Mar 3.8 22:38:49 10° N 22:40:38 19° NNE 22:40:38 19° NNE visible
30 Mar 4.0 21:35:36 10° NNE 21:36:39 11° NE 21:36:46 11° NE visible
30 Mar 3.9 23:13:21 10° NNW 23:15:04 22° NNW 23:15:04 22° NNW visible
31 Mar 3.2 22:08:12 10° N 22:11:14 25° NNE 22:11:14 25° NNE visible
31 Mar 4.6 23:48:47 10° NW 23:49:32 14° NW 23:49:32 14° NW visible
01 Apr 3.9 21:05:24 10° NE 21:05:57 10° NE 21:06:30 10° NE visible
01 Apr 2.9 22:42:41 10° NNW 22:45:46 40° NNW 22:45:46 40° NNW visible
02 Apr 2.9 21:37:35 10° N 21:41:36 26° NE 21:42:02 26° ENE visible
02 Apr 3.9 23:18:04 10° NW 23:20:20 23° WNW 23:20:20 23° WNW visible
03 Apr 1.6 22:12:02 10° NNW 22:16:40 74° NE 22:16:40 74° NE visible
04 Apr 3.0 21:06:58 10° N 21:10:55 25° NE 21:13:03 18° E visible
04 Apr 3.1 22:47:22 10° NW 22:51:22 34° W 22:51:22 34° W visible
05 Apr 1.7 21:41:22 10° NNW 21:46:09 72° ENE 21:47:50 40° SE visible
05 Apr 4.5 23:25:04 10° W 23:26:09 11° W 23:26:09 11° W visible
06 Apr 3.0 20:36:20 10° N 20:40:13 24° NE 20:44:05 10° ESE visible
06 Apr 3.0 22:16:40 10° NW 22:21:01 36° WSW 22:22:42 27° SSW visible
